Regional Weather Roundup
Issued by NWS

Home | Current Version | Previous Version | Graphics & Text | Print | Product List | Glossary On
Versions: 1 2 3 4 5 6 7 8 9 10 11 12 13 14 15 16 17 18 19 20 21 22 23 24 25 26 27 28 29 30 31 32 33 34 35 36 37 38 39 40 41 42 43 44 45 46 47 48 49 50
000
ASUS43 KLSX 231307
RWRMO

WEATHER SUMMARY FOR MISSOURI
NATIONAL WEATHER SERVICE SPRINGFIELD MO
800 AM CDT TUE SEP 23 2014

NOTE: "FAIR" INDICATES FEW OR NO CLOUDS BELOW 12,000 FEET WITH NO
       SIGNIFICANT WEATHER AND/OR OBSTRUCTIONS TO VISIBILITY.
       CURRENT SKY AND/OR WEATHER CONDITIONS ARE NOT AVAILABLE FOR
       CHILLICOTHE AND FARMINGTON.

MOZ001>031-035>038-043-044-053-054-231400-
...NORTHERN AND WESTERN MISSOURI...

CITY           SKY/WX    TMP DP  RH WIND       PRES   REMARKS
KANSAS CTY INT CLOUDY    56  51  84 SE8       30.24R
KANSAS C DTWN  MOCLDY    61  50  67 CALM      30.25R
LEE`S SUMMIT   PTCLDY    57  50  77 S6        30.26R
ST JOSEPH      CLOUDY    57  53  86 S6        30.24S
CHILLICOTHE      N/A     55  51  86 CALM      30.29R
KIRKSVILLE     PTSUNNY   52  49  89 S3        30.29S

$$
MOZ066>068-077>081-088>096-101>105-231400-
...SOUTHWEST MISSOURI...

CITY           SKY/WX    TMP DP  RH WIND       PRES   REMARKS
SPRINGFIELD    SUNNY     55  49  80 SE7       30.28R
JOPLIN         CLEAR     55  51  86 S3        30.26R

$$
MOZ032>034-039>042-045>050-055>058-069>072-231400-
...CENTRAL MISSOURI...

CITY           SKY/WX    TMP DP  RH WIND       PRES   REMARKS
COLUMBIA       SUNNY     53  48  83 SE6       30.29R
JEFFERSON CITY SUNNY     47  46  97 CALM      30.29S
ROLLA          SUNNY     53  46  77 S8        30.28R
SEDALIA        SUNNY     54  49  83 S6        30.28R
WHITEMAN AFB   MOSUNNY   54  50  86 S7        30.27R
OSAGE BEACH    SUNNY     48  45  87 SE5       30.29R

$$
MOZ051-052-059>065-231400-
...EAST CENTRAL MISSOURI...

CITY           SKY/WX    TMP DP  RH WIND       PRES   REMARKS
ST LOUIS INTL  MOSUNNY   56  51  84 CALM      30.31R
SPIRIT OF STL  MOSUNNY   47  47 100 CALM      30.30R
ST CHARLES     SUNNY     54  51  90 E5        30.31R

$$
MOZ072>076-082>087-097>100-106>115-231400-
...SOUTH CENTRAL AND SOUTHEAST MISSOURI...

CITY           SKY/WX    TMP DP  RH WIND       PRES   REMARKS
CAPE GIRARDEAU MOSUNNY   47  46  97 CALM      30.29S FOG
FARMINGTON     SUNNY     45  43  93 CALM      30.32R
POPLAR BLUFF   SUNNY     52  47  83 N3        30.28R
WEST PLAINS    SUNNY     50  46  86 NE3       30.29R

$$


USA.gov is the U.S. government's official web portal to all federal, state and local government web resources and services.